Find CATCH-1

NORAD ID: 60089 Int'l Des: 2024-116 Owner: CAS Country: CN operational
LEOCIRCULAR

リアルタイム位置

3D地球を読み込み中...

CATCH-1について

説明を読み込み中...

次回通過

Passes for default location (London). Set your location on the main map for personalized predictions.

高度履歴

Loading altitude history...

軌道要素

1 60089U 24116B 26104.85046044 .00000828 00000-0 83472-4 0 9997
2 60089 28.9948 157.7403 0005403 110.0181 250.0994 14.83397694 98185
Epoch: Apr 14, 2026 • Age: 13 hours

現在のステータス

高度 613.7 km
速度 7.56 km/s
衛星直下点 27.98°N, 88.8°W
打ち上げ日 Jun 22, 2024
運用期間 1.8 years
タイプ other

技術仕様

分類 Payload
質量 20.00 kg
乾燥質量 20.00 kg
総質量 20.00 kg
長さ 0.30 m
直径 0.20 m
スパン 0.50 m
形状 Box+2 pan + boom
製造者 IMICAS
バスタイプ Hunter
フェーズステータス In Orbit
所有者/国 CAS/CN

Most Searched